Hourly Data Report for March 12, 2020

MIRAMICHI RCS
NEW BRUNSWICK
Current Station Operator: ECCC - MSC

47°00'34.000" N
65°27'54.000" W
33.00 m
8100989
71744
ACQ

Download Data

Hourly Data (March 2020)
Hourly Data Report for March 12, 2020
TIME
LST
Temp Definition
°C
Dew Point Definition
°C
Rel Hum Definition
%
Precip. Amount Definition
mm

Wind Dir Definition
10's deg

Wind Spd Definition
km/h
Visibility Definition
km
Stn Press Definition
kPa
Hmdx Definition


Wind Chill Definition


Weather Definition


00:00 -5.8 -10.5 69 LegendMM 30 7   101.63   -9 LegendNANA
01:00 -6.2 -11.1 68 LegendMM 30 10   101.62   -11 LegendNANA
02:00 -6.7 -11.4 69 LegendMM 29 4   101.66   -9 LegendNANA
03:00 -7.0 -11.7 69 LegendMM 30 6   101.69   -10 LegendNANA
04:00 -7.9 -12.2 71 LegendMM 29 12   101.75   -13 LegendNANA
05:00 -9.8 -12.9 78 LegendMM 29 8   101.79   -14 LegendNANA
06:00 -11.7 -13.9 84 LegendMM 30 7   101.85   -16 LegendNANA
07:00 -11.5 -14.4 79 LegendMM 29 6   101.94   -15 LegendNANA
08:00 -9.6 -13.9 71 LegendMM 31 8   101.97   -14 LegendNANA
09:00 -8.0 -14.4 60 LegendMM 30 13   102.01   -14 LegendNANA
10:00 -6.8 -14.6 54 LegendMM 30 12   102.01   -12 LegendNANA
11:00 -5.5 -14.1 51 LegendMM 30 13   101.98   -11 LegendNANA
12:00 -3.6 -13.6 46 LegendMM 28 11   101.92   -8 LegendNANA
13:00 -2.1 -13.5 41 LegendMM 27 15   101.90   -7 LegendNANA
14:00 -0.7 -12.6 40 LegendMM 27 11   101.88   -4 LegendNANA
15:00 -0.3 -12.8 39 LegendMM 23 13   101.93   -4 LegendNANA
16:00 0.4 -10.8 43 LegendMM 24 12   101.96     LegendNANA
17:00 0.8 -11.5 39 LegendMM 25 13   101.97     LegendNANA
18:00 0.0 -11.3 42 LegendMM 25 12   102.06   -4 LegendNANA
19:00 -2.1 -11.4 49 LegendMM 32 4   102.16   -4 LegendNANA
20:00 -4.2 -11.4 57 LegendMM 34 4   102.23   -6 LegendNANA
21:00 -5.6 -10.7 68 LegendMM 3 7   102.31   -9 LegendNANA
22:00 -8.3 -11.0 81 LegendMM 6 4   102.37   -10 LegendNANA
23:00 -11.4 -13.6 84 LegendMM 1 3   102.39   -13 LegendNANA

Notes on Data Quality.

Legend

  • E = Estimated
  • M = Missing
  • NA = Not Available*
  • [empty] = Indicates an unobserved value
Date modified: